Flag for U.S.A. Weather past 2 weeks in Waterbury, Connecticut, U.S.A.

Now
79 °F

Broken clouds.


Feels Like: 80 °F
Forecast: 58 / 81 °F
Wind: 12 mph from Southwest

Location: Oxford

Current Time: Jun 30, 2015 at 1:51:42 PM

Latest Report: Jun 30, 2015 at 12:50 PM


Visibility: 10 mi

Pressure: 30.01 "Hg

Humidity: 54%

Dew point: 61 °F

Location of WaterburyLocation

Historic Weather in Waterbury — Graph

°F

Waterbury temperature yesterday

Maximum temperature yesterday: 73 °F (at 3:50 PM)
Minimum temperature yesterday: 57 °F (at 12:35 AM)
Average temperature yesterday: 63 °F

Past Weeks' High & Low Weather Summary

 TemperatureHumidityPressure
High86 °F (Jun 23, 2:50 PM)100% (Jun 15, 11:55 AM)30.18 "Hg (Jun 15, 11:55 AM)
Low34 °F (Jun 15, 11:55 AM)42% (Jun 25, 2:50 PM)29.68 "Hg (Jun 28, 11:50 AM)
Average65 °F72%29.97 "Hg
* Reported Jun 15 11:55 AM — Jun 30 11:50 AM, Waterbury, Weather by CustomWeather, © 2015

Note: Actual official high and low records may vary slightly from our data, if they occured in-between our weather recording intervals... More about our weather records

Advertising

Waterbury weather history for previous 24 hours

 ConditionsComfort  
Time TempWeatherWind HumidityBarometerVisibility
11:50 AM
Tue, Jun 30
79 °FBroken clouds.12 mph54%30.02 "Hg10 mi
10:50 AM75 °FPassing clouds.6 mph61%30.02 "Hg10 mi
9:50 AM73 °FPassing clouds.No wind65%30.03 "Hg10 mi
8:50 AM70 °FPassing clouds.3 mph69%30.03 "Hg10 mi
7:50 AM64 °FPartly sunny.5 mph78%30.02 "Hg10 mi
6:50 AM64 °FScattered clouds.6 mph78%30.00 "Hg10 mi
5:50 AM63 °FPassing clouds.No wind77%29.98 "Hg10 mi
5:35 AM63 °FOvercast.No wind77%29.98 "Hg10 mi
5:15 AM63 °FOvercast.No wind77%29.98 "Hg10 mi
4:55 AM63 °FOvercast.No wind77%29.98 "Hg10 mi
4:35 AM63 °FMostly cloudy.No wind77%29.97 "Hg10 mi
4:15 AM63 °FMostly cloudy.No wind77%29.98 "Hg10 mi
3:55 AM63 °FMostly cloudy.No wind77%29.98 "Hg10 mi
3:35 AM64 °FMostly cloudy.No wind73%29.98 "Hg10 mi
3:15 AM63 °FMostly cloudy.No wind77%29.98 "Hg10 mi
2:55 AM63 °FMostly cloudy.No wind77%29.98 "Hg10 mi
2:35 AM61 °FPartly cloudy.No wind77%29.98 "Hg10 mi
2:15 AM61 °FPassing clouds.No wind77%29.98 "Hg10 mi
1:55 AM61 °FPassing clouds.No wind77%29.98 "Hg10 mi
1:35 AM61 °FPartly cloudy.No wind77%29.98 "Hg10 mi
1:15 AM61 °FPassing clouds.No wind77%29.98 "Hg10 mi
12:55 AM61 °FPassing clouds.No wind77%29.98 "Hg10 mi
12:15 AM61 °FPassing clouds.No wind77%29.97 "Hg10 mi
11:55 PM
Mon, Jun 29
61 °FPassing clouds.No wind77%29.97 "Hg10 mi
11:35 PM61 °FPassing clouds.No wind77%29.98 "Hg10 mi
11:15 PM63 °FPassing clouds.No wind73%29.98 "Hg10 mi
10:55 PM61 °FPassing clouds.No wind77%29.98 "Hg10 mi
10:35 PM63 °FPassing clouds.No wind73%29.97 "Hg10 mi
10:15 PM61 °FPassing clouds.No wind77%29.97 "Hg10 mi
9:55 PM63 °FPassing clouds.No wind77%29.96 "Hg10 mi
9:35 PM63 °FClear.No wind77%29.96 "Hg10 mi
9:15 PM64 °FSunny.No wind73%29.95 "Hg10 mi
7:50 PM72 °FPassing clouds.No wind61%29.94 "Hg10 mi
6:50 PM70 °FScattered clouds.3 mph60%29.93 "Hg10 mi
5:50 PM72 °FBroken clouds.7 mph61%29.92 "Hg10 mi
4:50 PM73 °FBroken clouds.6 mph53%29.91 "Hg10 mi
3:50 PM73 °FBroken clouds.3 mph53%29.91 "Hg10 mi
2:50 PM72 °FPartly sunny.6 mph61%29.91 "Hg10 mi
1:50 PM72 °FBroken clouds.8 mph61%29.91 "Hg10 mi
Weather by CustomWeather, © 2015

See weather overviewHow to use our weather pages